User: anonymous   Login
Location: Unspecified
(0.0000°N, 0.0000°E)
Time: 11:45:46
(UTC+00:00)
Language:

DNEPR OBJECT AD - Orbit

View from above orbital plane
View from above orbital plane
View from above satellite
View from above satellite

Ground track
Ground track

The orbit data is extracted from the following two-line orbital elements,

1 39443U 13066AD  23342.97407217  .00018402  00000-0  92293-3 0  9993
2 39443  97.4052 351.7561 0011090 148.7937 211.3957 15.17329293547163
Epoch (UTC): 08 December 2023 23:22:39
Eccentricity: 0.0011090
inclination: 97.4052°
perigee height: 506 km
apogee height: 521 km
right ascension of ascending node: 351.7561°
argument of perigee: 148.7937°
revolutions per day: 15.17329293
mean anomaly at epoch: 211.3957°
orbit number at epoch: 54716

The dashed part of the orbit path shows where the satellite is in the earth's shadow,  

DLR